Showing default

IONOSFERA-M 04, 64877

Orbit data source: Space-Track

IONOSFERA-M 04, 64877 is a payload satellite owned by VNIIEM (CIS) in SSO that was launched on Fri, 25 Jul 2025 UTC via a SOYUZ-2-1B launch vehicle from the Vostochny Cosmodrome (VOSTO). Payload-class satellites include a variety of spacecraft equipped with specific instruments for various scientific and technological missions. These include communications satellites like Starlink; space stations such as the ISS; scientific satellites like the Hubble; Earth observation satellites from companies like Planet Labs, Umbra, and HawkEye 360; GPS; miniature CubeSats for education and research; and military/defense satellites.

Loading next visibility...
Identifier
64877, 2025-155B
Orbit
SSO
Country
Flag of CISCIS
Related business
Manufacturer
VNIIEM
Mission
Operational Civil Science
Bus & Motor
IONOSFERA-M, Unknown motor
Mass
430 kg wet, 430 kg dry
Launch date (UTC)
2025-07-25 (9 months ago)
Launch vehicle
SOYUZ-2-1B
Launch site
Vostochny Cosmodrome (VOSTO)
Object type
Payload
Rocket body
Debris
Shape & HBR
Box + 1 Ant, 14.5 m
Radar Cross Section
2.359 m², Large (>1 m²)

Expand to show TLE details & history
Last TLE update: 6 hours ago

TLE from 6 hours ago
0 IONOSFERA-M 04
1 64877U 25155B   26121.19052679  .00000048  00000-0  41547-4 0  9998
2 64877  98.5995  84.2058 0001259  53.1759 306.9533 14.21480069 39728
Epoch: 2026-05-01T04:34Z
TLE epoch observation values (Epoch: 2026-05-01T04:34:21.514Z)
Latitude
-0.00013°
Longitude
156.48984°
Altitude
822.727 km
Speed
7.442 km/s
True Right ascension
05h 36m 49s
True Declination
0° 00' 00"
Sunlit
Object was in daylight at epoch
Visualization orbit readout
Latitude
Unknown
Longitude
Unknown
Altitude
Unknown
Speed
Unknown
Apparent Right ascension
Unknown
Apparent Declination
Unknown
Sunlit
N/A
Visualization observer readout
Local Sidereal Time
18:12:07
Azimuth
Unknown
Elevation
Unknown
Doppler factor
Unknown
Orbital elements
Apogee altitude
818.409 km
Perigee altitude
816.597 km
Semi-major axis
7,195.64 km
Eccentricity
0.00013
Inclination
98.5995°
RAAN
84.2058°
Arg. of periapsis
53.1759°
True anomaly
306.94177°
Mean anomaly
306.9533°
Eccentric anomaly
306.94754°
Mean motion
3.55581 °/min
Orbital period
101.24 mins
BSTAR
0.000041547
Loading maneuver chart data...
Computing Atmospheric mass density...
Loading historical data...
Loading historical data...
Loading historical data...
Loading historical data...
Loading historical data...
Loading historical data...
Loading historical data...

Documentation

Showing up to 5 results
|